Погода в Тернополе

Погода в Тернополе : погода сейчас, прогноз погоды и архив. Всё, что Вы хотите узнать о погоде в Тернополе!

Хотите узнать прогноз погоды в Тернополе? Тогда Вам сюда: Погода в Тернополе

Поиск расширенной информации на нашем сайте:

Другие новости

Новости СМИ2

Главная страница сайта

Новости сайта

03.07.2017

Напоминаем, что на нашем специализированном сайте Метеоцентр.Азия вы можете получить высокодетализированные автоматические прогнозы погоды по пунктам России, СНГ и мира в авиационном формате (включающие направление и скорость ветра, видимость, явления погоды, количество и форму облачности, нижнюю и верхнюю границу облачности).


Погода в Тернополе - сегодня

Время (UTC), дата Ветер
(°,м/с) 
Видим.   Явления Облачность Т
(°С)
Тd
(°С)
f(%) Тe
(°С)
Pmin
(гПа)
dP
(гПа)
Po
(мм)
O2
(г/м3)
Тmin Tmax R s Состояние
почвы
00 17.10.18 тихо ()   10 км    ясно 
+6.4 +4.3 86 +6  1026  -0.4  739  290           
03 17.10.18 тихо ()   10 км    ясно 
+5.6 +4 89 +6  1025.6  -0.5  739  291           
06 17.10.18 тихо ()   4000 м  дымка  ясно 
+7 +4.7 85 +7  1026.1  0.7  740  290  +3.9         
09 17.10.18 150 (ЮВ) 10 км    ясно 
+19.5 +7.5 46 +20  1024.4  0.1  740  277           
12 17.10.18 160 (Ю) 20000 м    ясно 
+22.8 +6.6 35 +23  1022.7  -1.2  739  274           
15 17.10.18 150 (ЮВ) 10 км    ясно 
+19.7 +7.2 44 +21  1022.4  -0.7  738  276           
18 17.10.18 110 (В) 10 км    ясно 
+13.4 +7.5 67 +14  1023.6  0.3  738  282    +22.8       
21 17.10.18 тихо ()   10 км    ясно 
+9.7 +7 83 +10  1024.1  738  286           
00 18.10.18 340 (С) 10 км    ясно 
+6.4 +5 91 +7  1023.7  -0.9  738  290           
03 18.10.18 010 (С) 10 км    ясно 
+6.1 +5.2 94 +7  1022.9  -0.8  737  290           
06 18.10.18 тихо ()   4000 м  дымка  ясно 
+6.6 +5.5 93 +7  1022.5  -0.3  737  289  +5.2  +0.6      сухая 
09 18.10.18 140 (ЮВ) 10 км    ясно 
+18.5 +6.9 47 +19  1020.3  -0.5  737  277           
12 18.10.18 140 (ЮВ) 10 км    ясно 
+20.8 +5.7 37 +21  1018.4  -1.5  735  274           
15 18.10.18 140 (ЮВ) 10 км    ясно 
+18.6 +8.5 52 +20  1018.1  -0.6  735  276           
18 18.10.18 140 (ЮВ) 10 км    3/0 верхняя 
[Ci fib]
+12.2 +6.6 69 +13  1019.2  0.2  735  282    +21.4       
21 18.10.18 тихо ()   10 км    ясно 
+8.4 +5.6 83 +8  1019.8  0.1  735  286           
00 19.10.18 290 (З) 10 км    3/0 верхняя 
[Ci fib]
+7.6 +6.1 90 +9  1019.5  -0.4  735  287           
03 19.10.18 тихо ()   10 км    3/0 верхняя 
[Ci fib]
+4.5 +3.1 91 +5  1019.8  -0.2  735  291           
06 19.10.18 270 (З) 4000 м  дымка  4/0 верхняя 
[Ci fib]
+5.7 +4.6 93 +5  1020.4  0.8  735  289  +4.1  +0.4       
09 19.10.18 330 (СЗ) 10 км    8/0 средняя, верхняя 
[Ac trans|Ci fib]
+15.7 +10.7 72 +18  1019.2  0.2  736  278           
12 19.10.18 260 (З) 10 км    8/4 1000 м средняя 
[Sc|Ac trans]
+18.1 +9.2 56 +20  1017.9  -0.9  735  276           
15 19.10.18 310 (СЗ) 10 км    8/5 700 м средняя 
[Sc|Ac trans]
+16.3 +9.5 64 +17  1018.3  0.1  735  278           
18 19.10.18 320 (СЗ) 10 км    9/4 1000 м средняя 
[Sc|Ac trans]
+12.5 +9.2 80 +13  1019.7  0.9  736  282    +19.2       
21 19.10.18 310 (СЗ) 4000 м  дымка  8/3 600 м средняя 
[Sc|Ac trans]
+10 +8.6 91 +10  1020.6  0.5  736  285           
00 20.10.18 330 (СЗ) 4000 м  дымка  8/3 600 м средняя 
[Sc|Ac trans]
+9.2 +8 92 +9  1021.3  0.5  736  286           
Время (UTC), дата Ветер
(°,м/с) 
Видим.   Явления Облачность Т
(°С)
Тd
(°С)
f(%) Тe
(°С)
Pmin
(гПа)
dP
(гПа)
Po
(мм)
O2
(г/м3)
Тmin Tmax R s Состояние
почвы

Для получения пояснительной информации подведите курсор к названию столбца.

ПОГОДА в Тернополе - архив

Всё, что Вы хотите узнать о погоде в Тернополе - удобно и подробно!

Выберите нужную дату (начиная с 1 января 2015* года) и нажмите кнопку "Найти".
Будут отображены архивные сводки погоды по пункту Тернополь, начиная с указанной даты.


Отображать данные в формате CSV (для использования в таблицах Excel)


Внимание! Наш архив погоды предназначен исключительно для личного некоммерческого использования в познавательных целях. Если Вам необходимы официальные справки о состоянии погоды (для производственных, юридических, коммерческих и т.п. целей), обращайтесь в органы Росгидромета.

*Примечание: данная дата относится к архиву по метеостанциям СССР (Россия, СНГ, Балтия).
Архив по метеостанциям Зарубежной Европы и Азии (кроме Китая) хранится 10 дней, по другим регионам земного шара (Китай, Африка, Америка, Австралия, Океания) - 1 день.

Тернополь - район местоположения метеостанции


Название, широта, долгота, высота метеостанции:
Тернополь 49.5°ш. 25.7°д. 329 м над ур. моря [Украина]

Дополнительная информация

В oтличие oт бoльшинства пoгoдных сайтoв мы публикуем пoдрoбную метеoинфoрмацию в детальнoм прoфессиoнальнoм фoрмате.

Характеристики температуры и влажнoсти вoздуха измеряются на высoте 2 м в тени вдали oт зданий и деревьев.
Скoрoсть ветра измеряется на высoте 10 м (на урoвне рoста челoвека скoрoсть ветра ниже в 1.5-2 раза). Если метеoстанция нахoдится в гoрoде или в лесу, тo скoрoсть ветра занижена на 2-4 м/с пo сравнению с oткрытым местoм. Скoрoсть ветра над акватoриями крупных рек и oзёр, а также на вершинах хoлмoв на 2-5 м/с выше, чем в oбычных услoвиях.
Атмoсфернoе давление в разных тoчках местнoсти мoжет значительнo oтличаться oт давления на метеoстанции, в зависимoсти oт услoвий рельефа (при пoдъёме на 10 м давление пoнижается примернo на 1 мм рт.ст.).